This demonstration page uses our WeatherBlox Daily Observations layout. Learn more.

Left ArrowRight Arrow

41.12389, -100.76542

Hourly Observations for January 26, 2019

Temp ( °F °C ) Dew Point ( °F °C ) Humidity (%) Winds ( mph kmh ) Pressure ( in mb ) Visibility ( mi km ) Precip ( " mm )
12:53 am 00:53 Cloudy 29 -1.7 21 -6.1 72 72 W 8 13 30.11 1020 10 16 N/A
1:53 am 01:53 Cloudy 28 -2.2 20 -6.7 72 72 WNW 10 17 30.11 1020 10 16 N/A
2:53 am 02:53 Mostly Clear 25 -3.9 19 -7.2 78 78 W 6 9 30.12 1020 10 16 N/A
3:53 am 03:53 Partly Cloudy 26 -3.3 19 -7.2 75 75 NW 9 15 30.09 1019 10 16 N/A
4:53 am 04:53 Clear 28 -2.2 19 -7.2 69 69 WNW 10 17 30.07 1018 10 16 N/A
5:53 am 05:53 Mostly Cloudy 27 -2.8 20 -6.7 75 75 WNW 7 11 30.06 1018 10 16 N/A
6:53 am 06:53 Cloudy 30 -1.1 19 -7.2 64 64 NW 10 17 30.06 1018 10 16 N/A
7:53 am 07:53 Cloudy 31 -0.6 21 -6.1 67 67 WNW 12 19 30.07 1018 10 16 N/A
8:53 am 08:53 Mostly Sunny 32 0 20 -6.7 61 61 NW 14 22 30.08 1019 10 16 N/A
9:53 am 09:53 Mostly Sunny 34 1.1 20 -6.7 56 56 NW 12 19 30.09 1019 10 16 N/A
10:53 am 10:53 Sunny 41 5 22 -5.6 47 47 NW 15 24 30.09 1019 10 16 N/A
11:53 am 11:53 Mostly Cloudy 45 7.2 24 -4.4 44 44 NNW 23 37 30.07 1018 10 16 N/A
12:53 pm 12:53 Cloudy 45 7.2 25 -3.9 46 46 NNW 20 31 30.05 1018 10 16 N/A
1:53 pm 13:53 Mostly Cloudy 47 8.3 23 -5 39 39 NNW 21 33 30.02 1017 10 16 N/A
2:53 pm 14:53 Cloudy 47 8.3 23 -5 39 39 NNW 22 35 30.02 1017 10 16 N/A
3:53 pm 15:53 Cloudy 44 6.7 26 -3.3 49 49 NNW 22 35 30.05 1018 10 16 N/A
4:53 pm 16:53 Cloudy 43 6.1 27 -2.8 53 53 NNW 15 24 30.05 1018 10 16 N/A
5:53 pm 17:53 Cloudy 38 3.3 31 -0.6 76 76 N 12 19 30.09 1019 10 16 0.00 0.03
6:53 pm 18:53 Cloudy 37 2.8 30 -1.1 76 76 NNW 9 15 30.12 1020 10 16 0.00 0.00
7:53 pm 19:53 Cloudy 33 0.6 29 -1.7 85 85 NNW 5 7 30.15 1021 10 16 0.00 0.00
8:53 pm 20:53 Cloudy 34 1.1 29 -1.7 82 82 NW 6 9 30.16 1021 10 16 0.00 0.00
9:53 pm 21:53 Clear 28 -2.2 26 -3.3 92 92 WNW 5 7 30.15 1021 10 16 0.00 0.00
10:53 pm 22:53 Mostly Cloudy 30 -1.1 27 -2.8 88 88 NNW 5 7 30.13 1020 10 16 0.00 0.00
11:53 pm 23:53 Cloudy 32 0 29 -1.7 88 88 W 5 7 30.11 1020 10 16 0.00 0.00

Powered by AerisWeather